EW4304 Weather Reports


Display with metric or nautical units.
time (UTC)temp
F
wind
direction
speed
MPH
gust
MPH
rain 1hr
in
rain 24hr
in
rain mn
in
humidity
%
barometer
mb
20260504231542 73 163 3.0 8.0 0.00 0.00 0.00 51 1004.6
20260504230040 73 189 4.0 8.0 0.00 0.00 0.00 51 1004.7
20260504224537 73 225 5.0 10.0 0.00 0.00 0.00 51 1004.9
20260504223035 72 175 5.0 11.0 0.00 0.00 0.00 53 1005.2
20260504221536 72 178 3.0 12.0 0.00 0.00 0.00 53 1005.3
20260504220031 71 196 3.0 10.0 0.00 0.00 0.00 55 1005.1
20260504214530 70 211 3.0 10.0 0.00 0.00 0.00 54 1005.2
20260504213027 71 169 5.0 14.0 0.00 0.00 0.00 53 1005.8
20260504211526 71 164 6.0 18.0 0.00 0.00 0.00 54 1005.8
20260504210024 69 207 5.0 10.0 0.00 0.00 0.00 60 1006.1
20260504204522 68 147 5.0 13.0 0.00 0.00 0.00 62 1006.0
20260504203018 67 80 1.0 8.0 0.00 0.00 0.00 62 1006.5
20260504201517 67 199 4.0 14.0 0.00 0.00 0.00 62 1007.0
20260504200033 67 200 7.0 17.0 0.00 0.00 0.00 61 1006.9
20260504194520 67 214 6.0 13.0 0.00 0.00 0.00 62 1006.9
20260504193014 67 157 5.0 12.0 0.00 0.00 0.00 62 1006.9
20260504191527 67 142 4.0 12.0 0.00 0.00 0.00 63 1007.5
20260504190014 67 219 6.0 12.0 0.00 0.00 0.00 61 1007.9
20260504184515 69 187 8.0 18.0 0.00 0.00 0.00 57 1008.1
20260504183024 69 194 8.0 16.0 0.00 0.00 0.00 59 1007.9
20260504181522 69 234 9.0 15.0 0.00 0.00 0.00 58 1007.5
20260504180009 69 189 8.0 18.0 0.00 0.00 0.00 58 1007.3
20260504174507 68 197 7.0 15.0 0.00 0.00 0.00 59 1006.9
20260504173004 67 190 7.0 14.0 0.00 0.00 0.00 60 1007.1
20260504171502 68 196 5.0 13.0 0.00 0.00 0.00 60 1007.3
20260504170110 67 149 8.0 15.0 0.00 0.00 0.00 60 1007.5
20260504081544 49 154 0.0 2.0 0.00 0.00 0.00 70 1010.2
20260504050016 53 171 1.0 3.0 0.00 0.00 0.00 61 1011.9
20260504044520 53 195 2.0 7.0 0.00 0.00 0.00 60 1012.0
20260504043011 54 185 1.0 5.0 0.00 0.00 0.00 58 1012.1
20260504041506 54 284 0.0 6.0 0.00 0.00 0.00 58 1012.2
20260504040003 55 163 1.0 7.0 0.00 0.00 0.00 57 1012.4
20260504034502 55 165 2.0 6.0 0.00 0.00 0.00 56 1012.5
20260504033002 55 151 0.0 4.0 0.00 0.00 0.00 55 1012.6
20260504031501 55 178 1.0 3.0 0.00 0.00 0.00 54 1012.6
20260504030105 55 169 1.0 5.0 0.00 0.00 0.00 54 1012.8
20260504024559 55 205 2.0 7.0 0.00 0.00 0.00 54 1012.8
20260504023105 55 192 1.0 3.0 0.00 0.00 0.00 55 1013.0
20260504021559 53 193 1.0 4.0 0.00 0.00 0.00 59 1013.0
20260504014558 51 90 0.0 0.0 0.00 0.00 0.00 75 1013.1
20260504013109 51 90 0.0 0.0 0.00 0.00 0.00 74 1012.9
20260504011557 51 90 0.0 0.0 0.00 0.00 0.00 72 1012.9
20260504010112 51 90 0.0 0.0 0.00 0.00 0.00 71 1012.9
20260504004624 52 90 0.0 0.0 0.00 0.00 0.00 72 1012.9
20260504003055 52 90 0.0 0.0 0.00 0.00 0.00 70 1012.8
20260504001607 53 40 0.0 0.0 0.00 0.00 0.00 68 1012.7
20260504000055 53 40 0.0 0.0 0.00 0.00 0.00 67 1012.9
20260503234554 53 40 0.0 0.0 0.00 0.00 0.00 66 1012.7
20260503233052 53 104 0.0 7.0 0.00 0.00 0.00 66 1012.6